User: anonymous   Login
Location: Unspecified
(0.0000°N, 0.0000°E)
Time: 21:08:43
(UTC+00:00)
Language:

N. Korean satellite - Orbit

View from above orbital plane
View from above orbital plane
View from above satellite
View from above satellite

Ground track
Ground track

The orbit data is extracted from the following two-line orbital elements,

1 39026U 12072A   18108.96887097 +.00001378 +00000-0 +54290-4 0  9997
2 39026 097.2128 121.3502 0039684 170.6918 189.5066 15.26552467296563
Epoch (UTC): 18 April 2018 23:15:10
Eccentricity: 0.0039684
inclination: 97.2128°
perigee height: 459 km
apogee height: 513 km
right ascension of ascending node: 121.3502°
argument of perigee: 170.6918°
revolutions per day: 15.26552467
mean anomaly at epoch: 189.5066°
orbit number at epoch: 29656

The dashed part of the orbit path shows where the satellite is in the earth's shadow,  

DLR